Time,TemperatureF,DewpointF,PressureIn,WindDirection,WindDirectionDegrees,WindSpeedMPH,WindSpeedGustMPH,Humidity,HourlyPrecipIn,Conditions,Clouds,dailyrainin,SoftwareType,DateUTC
2013-07-30 00:01:00,70.9,69.7,30.07,West,281,0.0,0.0,96,0.00,,CLR,0.00,VWS V14.01,2013-07-30 04:01:00,
2013-07-30 00:06:00,70.8,69.6,30.07,West,281,0.0,0.0,96,0.00,,CLR,0.00,VWS V14.01,2013-07-30 04:06:00,
2013-07-30 00:11:00,70.6,69.4,30.07,West,281,0.0,0.0,96,0.00,,CLR,0.00,VWS V14.01,2013-07-30 04:11:00,
2013-07-30 00:16:00,70.4,69.2,30.07,West,281,0.0,0.0,96,0.00,,CLR,0.00,VWS V14.01,2013-07-30 04:16:00,
2013-07-30 00:21:00,70.4,69.2,30.07,West,281,0.0,0.0,96,0.00,,CLR,0.00,VWS V14.01,2013-07-30 04:21:00,
2013-07-30 00:26:00,70.3,69.1,30.07,West,281,0.0,0.0,96,0.00,,CLR,0.00,VWS V14.01,2013-07-30 04:26:00,
2013-07-30 00:31:00,70.3,69.1,30.07,West,281,0.0,0.0,96,0.00,,CLR,0.00,VWS V14.01,2013-07-30 04:31:00,
2013-07-30 00:36:00,70.3,68.8,30.07,West,281,0.0,0.0,95,0.00,,CLR,0.00,VWS V14.01,2013-07-30 04:36:00,
2013-07-30 00:42:00,70.1,68.6,30.07,West,281,0.0,0.0,95,0.00,,CLR,0.00,VWS V14.01,2013-07-30 04:42:00,
2013-07-30 00:47:00,70.1,68.6,30.07,West,281,0.0,0.0,95,0.00,,CLR,0.00,VWS V14.01,2013-07-30 04:47:00,
2013-07-30 00:52:00,69.9,68.4,30.07,West,281,0.0,0.0,95,0.00,,CLR,0.00,VWS V14.01,2013-07-30 04:52:00,
2013-07-30 00:57:00,69.8,68.3,30.07,West,281,0.0,0.0,95,0.00,,CLR,0.00,VWS V14.01,2013-07-30 04:57:00,
2013-07-30 01:02:00,69.6,68.1,30.07,West,281,0.0,0.0,95,0.00,,CLR,0.00,VWS V14.01,2013-07-30 05:02:00,
2013-07-30 01:07:00,69.6,68.1,30.07,West,281,0.0,0.0,95,0.00,,CLR,0.00,VWS V14.01,2013-07-30 05:07:00,
2013-07-30 01:12:00,69.4,67.6,30.07,West,281,0.0,0.0,94,0.00,,CLR,0.00,VWS V14.01,2013-07-30 05:12:00,
2013-07-30 01:17:00,69.1,67.3,30.07,West,281,0.0,0.0,94,0.00,,CLR,0.00,VWS V14.01,2013-07-30 05:17:00,
2013-07-30 01:22:00,69.1,67.3,30.07,West,281,0.0,0.0,94,0.00,,CLR,0.00,VWS V14.01,2013-07-30 05:22:00,
2013-07-30 01:27:00,68.9,67.1,30.07,West,281,0.0,0.0,94,0.00,,CLR,0.00,VWS V14.01,2013-07-30 05:27:00,
2013-07-30 01:32:00,68.9,67.1,30.07,West,281,0.0,0.0,94,0.00,,CLR,0.00,VWS V14.01,2013-07-30 05:32:00,
2013-07-30 01:37:00,68.6,66.8,30.07,West,281,0.0,0.0,94,0.00,,CLR,0.00,VWS V14.01,2013-07-30 05:37:00,
2013-07-30 01:42:00,68.4,66.6,30.07,West,281,0.0,0.0,94,0.00,,CLR,0.00,VWS V14.01,2013-07-30 05:42:00,
2013-07-30 01:47:00,68.4,66.3,30.07,West,281,0.0,0.0,93,0.00,,CLR,0.00,VWS V14.01,2013-07-30 05:47:00,
2013-07-30 01:52:00,68.3,66.2,30.07,West,281,0.0,0.0,93,0.00,,CLR,0.00,VWS V14.01,2013-07-30 05:52:00,
2013-07-30 01:57:00,68.3,66.2,30.07,West,281,0.0,0.0,93,0.00,,CLR,0.00,VWS V14.01,2013-07-30 05:57:00,
2013-07-30 02:02:00,68.1,65.7,30.06,West,281,0.0,0.0,92,0.00,,CLR,0.00,VWS V14.01,2013-07-30 06:02:00,
2013-07-30 02:07:00,67.9,65.2,30.06,West,281,0.0,0.0,91,0.00,,CLR,0.00,VWS V14.01,2013-07-30 06:07:00,
2013-07-30 02:12:00,67.9,65.5,30.06,West,281,0.0,0.0,92,0.00,,CLR,0.00,VWS V14.01,2013-07-30 06:12:00,
2013-07-30 02:17:00,67.6,65.2,30.05,West,281,0.0,0.0,92,0.00,,CLR,0.00,VWS V14.01,2013-07-30 06:17:00,
2013-07-30 02:22:00,67.4,65.0,30.05,West,281,0.0,0.0,92,0.00,,CLR,0.00,VWS V14.01,2013-07-30 06:22:00,
2013-07-30 02:27:00,67.4,65.0,30.05,West,281,0.0,0.0,92,0.00,,CLR,0.00,VWS V14.01,2013-07-30 06:27:00,
2013-07-30 02:32:00,67.3,64.6,30.06,West,281,0.0,0.0,91,0.00,,CLR,0.00,VWS V14.01,2013-07-30 06:32:00,
2013-07-30 02:37:00,67.1,64.4,30.06,West,281,0.0,0.0,91,0.00,,CLR,0.00,VWS V14.01,2013-07-30 06:37:00,
2013-07-30 02:42:00,67.1,64.4,30.06,West,281,0.0,0.0,91,0.00,,CLR,0.00,VWS V14.01,2013-07-30 06:42:00,
2013-07-30 02:47:00,66.9,64.2,30.06,West,281,0.0,0.0,91,0.00,,CLR,0.00,VWS V14.01,2013-07-30 06:47:00,
2013-07-30 02:52:00,66.8,64.1,30.06,West,281,0.0,0.0,91,0.00,,CLR,0.00,VWS V14.01,2013-07-30 06:52:00,
2013-07-30 02:57:00,66.8,64.1,30.06,West,281,0.0,0.0,91,0.00,,CLR,0.00,VWS V14.01,2013-07-30 06:57:00,
2013-07-30 03:02:00,66.8,63.8,30.06,West,281,0.0,0.0,90,0.00,,CLR,0.00,VWS V14.01,2013-07-30 07:02:00,
2013-07-30 03:07:00,66.8,63.8,30.06,West,281,0.0,0.0,90,0.00,,CLR,0.00,VWS V14.01,2013-07-30 07:07:00,
2013-07-30 03:12:00,66.8,63.8,30.06,West,281,0.0,0.0,90,0.00,,CLR,0.00,VWS V14.01,2013-07-30 07:12:00,
2013-07-30 03:17:00,66.8,63.8,30.06,West,281,0.0,0.0,90,0.00,,CLR,0.00,VWS V14.01,2013-07-30 07:17:00,
2013-07-30 03:22:00,66.8,63.8,30.06,West,281,0.0,0.0,90,0.00,,CLR,0.00,VWS V14.01,2013-07-30 07:22:00,
2013-07-30 03:27:00,66.6,63.6,30.06,West,281,0.0,0.0,90,0.00,,CLR,0.00,VWS V14.01,2013-07-30 07:27:00,
2013-07-30 03:32:00,66.6,63.6,30.06,West,281,0.0,0.0,90,0.00,,CLR,0.00,VWS V14.01,2013-07-30 07:32:00,
2013-07-30 03:37:00,66.6,63.9,30.06,West,281,0.0,0.0,91,0.00,,CLR,0.00,VWS V14.01,2013-07-30 07:37:00,
2013-07-30 03:42:00,66.6,63.6,30.06,West,281,0.0,0.0,90,0.00,,CLR,0.00,VWS V14.01,2013-07-30 07:42:00,
2013-07-30 03:47:00,66.4,63.4,30.06,West,281,0.0,0.0,90,0.00,,CLR,0.00,VWS V14.01,2013-07-30 07:47:00,
2013-07-30 03:52:00,66.4,63.7,30.06,West,281,0.0,0.0,91,0.00,,CLR,0.00,VWS V14.01,2013-07-30 07:52:00,
2013-07-30 03:57:00,66.4,63.7,30.06,West,281,0.0,0.0,91,0.00,,CLR,0.00,VWS V14.01,2013-07-30 07:57:00,
2013-07-30 04:03:00,66.4,63.7,30.06,West,281,0.0,0.0,91,0.00,,CLR,0.00,VWS V14.01,2013-07-30 08:03:00,
2013-07-30 04:07:00,66.4,63.7,30.06,West,281,0.0,0.0,91,0.00,,CLR,0.00,VWS V14.01,2013-07-30 08:07:00,
2013-07-30 04:13:00,66.3,63.6,30.06,West,281,0.0,0.0,91,0.00,,CLR,0.00,VWS V14.01,2013-07-30 08:13:00,
2013-07-30 04:18:00,66.3,63.6,30.06,West,281,0.0,0.0,91,0.00,,CLR,0.00,VWS V14.01,2013-07-30 08:18:00,
2013-07-30 04:22:00,66.3,63.6,30.06,West,281,0.0,0.0,91,0.00,,CLR,0.00,VWS V14.01,2013-07-30 08:22:00,
2013-07-30 04:27:00,66.1,63.4,30.06,West,281,0.0,0.0,91,0.00,,CLR,0.00,VWS V14.01,2013-07-30 08:27:00,
2013-07-30 04:32:00,66.1,63.7,30.06,West,281,0.0,0.0,92,0.00,,CLR,0.00,VWS V14.01,2013-07-30 08:32:00,
2013-07-30 04:38:00,66.1,63.7,30.06,West,281,0.0,0.0,92,0.00,,CLR,0.00,VWS V14.01,2013-07-30 08:38:00,
2013-07-30 04:42:00,66.1,63.7,30.06,West,281,0.0,0.0,92,0.00,,CLR,0.00,VWS V14.01,2013-07-30 08:42:00,
2013-07-30 04:47:00,66.1,63.7,30.07,West,281,0.0,0.0,92,0.00,,CLR,0.00,VWS V14.01,2013-07-30 08:47:00,
2013-07-30 04:52:00,66.0,63.6,30.07,West,281,0.0,0.0,92,0.00,,CLR,0.00,VWS V14.01,2013-07-30 08:52:00,
2013-07-30 04:57:00,66.0,63.6,30.07,West,281,0.0,0.0,92,0.00,,CLR,0.00,VWS V14.01,2013-07-30 08:57:00,
2013-07-30 05:02:00,65.8,63.4,30.07,West,281,0.0,0.0,92,0.00,,CLR,0.00,VWS V14.01,2013-07-30 09:02:00,
2013-07-30 05:07:00,65.8,63.4,30.07,West,281,0.0,0.0,92,0.00,,CLR,0.00,VWS V14.01,2013-07-30 09:07:00,
2013-07-30 05:12:00,65.6,63.2,30.07,West,281,0.0,0.0,92,0.00,,CLR,0.00,VWS V14.01,2013-07-30 09:12:00,
2013-07-30 05:17:00,65.5,63.1,30.07,West,281,0.0,0.0,92,0.00,,CLR,0.00,VWS V14.01,2013-07-30 09:17:00,
2013-07-30 05:22:00,65.5,63.4,30.07,West,281,0.0,0.0,93,0.00,,CLR,0.00,VWS V14.01,2013-07-30 09:22:00,
2013-07-30 05:27:00,65.5,63.4,30.07,West,281,0.0,0.0,93,0.00,,CLR,0.00,VWS V14.01,2013-07-30 09:27:00,
2013-07-30 05:32:00,65.3,62.9,30.08,West,281,0.0,0.0,92,0.00,,CLR,0.00,VWS V14.01,2013-07-30 09:32:00,
2013-07-30 05:37:00,65.3,62.9,30.08,West,281,0.0,0.0,92,0.00,,CLR,0.00,VWS V14.01,2013-07-30 09:37:00,
2013-07-30 05:42:00,65.3,62.9,30.08,West,281,0.0,0.0,92,0.00,,CLR,0.00,VWS V14.01,2013-07-30 09:42:00,
2013-07-30 05:47:00,65.5,63.4,30.08,West,281,0.0,0.0,93,0.00,,CLR,0.00,VWS V14.01,2013-07-30 09:47:00,
2013-07-30 05:52:00,65.3,62.9,30.08,West,281,0.0,0.0,92,0.00,,CLR,0.00,VWS V14.01,2013-07-30 09:52:00,
2013-07-30 05:57:00,65.3,62.9,30.08,West,281,0.0,0.0,92,0.00,,CLR,0.00,VWS V14.01,2013-07-30 09:57:00,
2013-07-30 06:02:00,65.2,62.8,30.09,West,281,0.0,0.0,92,0.00,,CLR,0.00,VWS V14.01,2013-07-30 10:02:00,
2013-07-30 06:07:00,65.2,62.8,30.09,West,281,0.0,0.0,92,0.00,,CLR,0.00,VWS V14.01,2013-07-30 10:07:00,
2013-07-30 06:12:00,65.2,62.8,30.09,West,281,0.0,0.0,92,0.00,,CLR,0.00,VWS V14.01,2013-07-30 10:12:00,
2013-07-30 06:17:00,65.2,62.8,30.09,West,281,0.0,0.0,92,0.00,,CLR,0.00,VWS V14.01,2013-07-30 10:17:00,
2013-07-30 06:22:00,65.2,62.8,30.09,West,281,0.0,0.0,92,0.00,,CLR,0.00,VWS V14.01,2013-07-30 10:22:00,
2013-07-30 06:27:00,65.2,62.8,30.09,West,281,0.0,0.0,92,0.00,,CLR,0.00,VWS V14.01,2013-07-30 10:27:00,
2013-07-30 06:32:00,65.2,62.8,30.10,West,281,0.0,0.0,92,0.00,,CLR,0.00,VWS V14.01,2013-07-30 10:32:00,
2013-07-30 06:37:00,65.2,62.8,30.10,West,281,0.0,0.0,92,0.00,,CLR,0.00,VWS V14.01,2013-07-30 10:37:00,
2013-07-30 06:42:00,65.2,63.1,30.10,West,281,0.0,0.0,93,0.00,,CLR,0.00,VWS V14.01,2013-07-30 10:42:00,
2013-07-30 06:48:00,65.3,62.9,30.10,West,281,0.0,0.0,92,0.00,,CLR,0.00,VWS V14.01,2013-07-30 10:48:00,
2013-07-30 06:52:00,65.3,62.9,30.10,West,281,0.0,0.0,92,0.00,,CLR,0.00,VWS V14.01,2013-07-30 10:52:00,
2013-07-30 06:57:00,65.5,63.1,30.10,West,281,0.0,0.0,92,0.00,,CLR,0.00,VWS V14.01,2013-07-30 10:57:00,
2013-07-30 07:03:00,65.5,63.1,30.10,West,281,0.0,0.0,92,0.00,,CLR,0.00,VWS V14.01,2013-07-30 11:03:00,
2013-07-30 07:07:00,65.5,62.8,30.10,West,281,0.0,0.0,91,0.00,,CLR,0.00,VWS V14.01,2013-07-30 11:07:00,
2013-07-30 07:12:00,65.6,62.9,30.10,West,281,0.0,0.0,91,0.00,,CLR,0.00,VWS V14.01,2013-07-30 11:12:00,
2013-07-30 07:17:00,65.6,62.9,30.11,West,281,0.0,0.0,91,0.00,,CLR,0.00,VWS V14.01,2013-07-30 11:17:00,
2013-07-30 07:22:00,65.8,63.1,30.11,West,281,0.0,0.0,91,0.00,,CLR,0.00,VWS V14.01,2013-07-30 11:22:00,
2013-07-30 07:27:00,66.0,63.3,30.11,West,281,0.0,0.0,91,0.00,,CLR,0.00,VWS V14.01,2013-07-30 11:27:00,
2013-07-30 07:32:00,66.1,63.4,30.11,West,281,0.0,0.0,91,0.00,,CLR,0.00,VWS V14.01,2013-07-30 11:32:00,
2013-07-30 07:37:00,66.1,63.1,30.11,West,281,0.0,0.0,90,0.00,,CLR,0.00,VWS V14.01,2013-07-30 11:37:00,
2013-07-30 07:42:00,66.3,63.3,30.11,West,281,0.0,0.0,90,0.00,,CLR,0.00,VWS V14.01,2013-07-30 11:42:00,
2013-07-30 07:47:00,66.4,63.1,30.11,West,281,0.0,0.0,89,0.00,,,0.00,VWS V14.01,2013-07-30 11:47:00,
2013-07-30 07:52:00,66.6,63.3,30.11,West,281,0.0,0.0,89,0.00,,,0.00,VWS V14.01,2013-07-30 11:52:00,
2013-07-30 07:57:00,66.8,63.1,30.11,West,281,0.0,0.0,88,0.00,,,0.00,VWS V14.01,2013-07-30 11:57:00,
2013-07-30 08:02:00,66.9,63.6,30.12,West,281,0.0,0.0,89,0.00,,,0.00,VWS V14.01,2013-07-30 12:02:00,
2013-07-30 08:07:00,66.9,63.6,30.12,West,281,0.0,0.0,89,0.00,,,0.00,VWS V14.01,2013-07-30 12:07:00,
2013-07-30 08:12:00,67.1,63.8,30.12,West,281,0.0,0.0,89,0.00,,,0.00,VWS V14.01,2013-07-30 12:12:00,
2013-07-30 08:17:00,67.1,63.8,30.13,West,281,0.0,0.0,89,0.00,,,0.00,VWS V14.01,2013-07-30 12:17:00,
2013-07-30 08:22:00,67.3,64.0,30.13,West,281,0.0,0.0,89,0.00,,,0.00,VWS V14.01,2013-07-30 12:22:00,
2013-07-30 08:27:00,67.4,64.4,30.13,West,281,0.0,0.0,90,0.00,,,0.00,VWS V14.01,2013-07-30 12:27:00,
2013-07-30 08:32:00,67.6,64.6,30.12,West,281,0.0,0.0,90,0.00,,,0.00,VWS V14.01,2013-07-30 12:32:00,
2013-07-30 08:33:00,67.6,64.6,30.12,West,281,0.0,0.0,90,0.00,,,0.00,VWS V14.01,2013-07-30 12:33:00,
2013-07-30 08:38:00,67.8,65.1,30.12,West,281,0.0,0.0,91,0.00,,,0.00,VWS V14.01,2013-07-30 12:38:00,
2013-07-30 08:42:00,67.9,65.2,30.12,West,281,0.0,0.0,91,0.00,,,0.00,VWS V14.01,2013-07-30 12:42:00,
2013-07-30 08:47:00,68.3,65.6,30.13,West,281,0.0,0.0,91,0.00,,,0.00,VWS V14.01,2013-07-30 12:47:00,
2013-07-30 08:52:00,68.4,65.7,30.13,West,281,0.0,0.0,91,0.00,,,0.00,VWS V14.01,2013-07-30 12:52:00,
2013-07-30 08:57:00,68.6,65.9,30.13,West,281,0.0,0.0,91,0.00,,,0.00,VWS V14.01,2013-07-30 12:57:00,
2013-07-30 09:02:00,68.9,65.5,30.12,West,281,0.0,0.0,89,0.00,,CLR,0.00,VWS V14.01,2013-07-30 13:02:00,
2013-07-30 09:07:00,69.4,66.0,30.12,West,281,0.0,0.0,89,0.00,,CLR,0.00,VWS V14.01,2013-07-30 13:07:00,
2013-07-30 09:12:00,69.8,66.4,30.12,West,281,0.0,0.0,89,0.00,,CLR,0.00,VWS V14.01,2013-07-30 13:12:00,
2013-07-30 09:17:00,70.1,66.7,30.13,West,281,0.0,0.0,89,0.00,,CLR,0.00,VWS V14.01,2013-07-30 13:17:00,
2013-07-30 09:22:00,70.4,66.7,30.13,West,281,0.0,0.0,88,0.00,,CLR,0.00,VWS V14.01,2013-07-30 13:22:00,
2013-07-30 09:27:00,70.8,67.1,30.13,West,281,0.0,0.0,88,0.00,,CLR,0.00,VWS V14.01,2013-07-30 13:27:00,
2013-07-30 09:32:00,71.1,67.0,30.13,West,281,0.0,0.0,87,0.00,,CLR,0.00,VWS V14.01,2013-07-30 13:32:00,
2013-07-30 09:37:00,71.5,67.4,30.13,West,281,0.0,0.0,87,0.00,,CLR,0.00,VWS V14.01,2013-07-30 13:37:00,
2013-07-30 09:42:00,71.8,68.1,30.13,West,281,0.0,0.0,88,0.00,,CLR,0.00,VWS V14.01,2013-07-30 13:42:00,
2013-07-30 09:47:00,72.1,68.0,30.13,West,281,0.0,0.0,87,0.00,,CLR,0.00,VWS V14.01,2013-07-30 13:47:00,
2013-07-30 09:52:00,72.5,68.4,30.13,West,281,0.0,0.0,87,0.00,,CLR,0.00,VWS V14.01,2013-07-30 13:52:00,
2013-07-30 09:57:00,72.8,68.4,30.13,West,281,0.0,0.0,86,0.00,,CLR,0.00,VWS V14.01,2013-07-30 13:57:00,
2013-07-30 10:02:00,73.2,69.1,30.12,West,281,0.0,0.0,87,0.00,,CLR,0.00,VWS V14.01,2013-07-30 14:02:00,
2013-07-30 10:07:00,73.5,68.4,30.12,West,281,0.0,0.0,84,0.00,,CLR,0.00,VWS V14.01,2013-07-30 14:07:00,
2013-07-30 10:12:00,73.9,69.1,30.12,West,281,0.0,0.0,85,0.00,,CLR,0.00,VWS V14.01,2013-07-30 14:12:00,
2013-07-30 10:17:00,74.2,69.4,30.12,West,281,0.0,0.0,85,0.00,,CLR,0.00,VWS V14.01,2013-07-30 14:17:00,
2013-07-30 10:22:00,74.4,68.9,30.12,East,97,0.0,1.0,83,0.00,,CLR,0.00,VWS V14.01,2013-07-30 14:22:00,
2013-07-30 10:27:00,74.7,69.9,30.12,ESE,105,0.0,3.0,85,0.00,,CLR,0.00,VWS V14.01,2013-07-30 14:27:00,
2013-07-30 10:32:00,75.1,69.9,30.12,SSE,159,0.0,0.0,84,0.00,,CLR,0.00,VWS V14.01,2013-07-30 14:32:00,
2013-07-30 10:37:00,75.4,69.5,30.12,SSE,166,0.0,1.0,82,0.00,,CLR,0.00,VWS V14.01,2013-07-30 14:37:00,
2013-07-30 10:42:00,75.6,69.4,30.12,SSE,166,0.0,0.0,81,0.00,,CLR,0.00,VWS V14.01,2013-07-30 14:42:00,
2013-07-30 10:47:00,75.8,69.9,30.12,SE,144,0.0,1.0,82,0.00,,BKN015,0.00,VWS V14.01,2013-07-30 14:47:00,
2013-07-30 10:52:00,76.0,70.1,30.12,South,181,0.0,0.0,82,0.00,,BKN015,0.00,VWS V14.01,2013-07-30 14:52:00,
2013-07-30 10:57:00,76.0,70.1,30.12,South,186,0.0,0.0,82,0.00,,BKN015,0.00,VWS V14.01,2013-07-30 14:57:00,
2013-07-30 11:02:00,76.3,70.4,30.12,South,186,0.0,0.0,82,0.00,,SCT017,0.00,VWS V14.01,2013-07-30 15:02:00,
2013-07-30 11:07:00,76.3,70.4,30.12,South,190,0.0,2.0,82,0.00,,SCT017,0.00,VWS V14.01,2013-07-30 15:07:00,
2013-07-30 11:12:00,76.5,69.9,30.12,SE,125,0.0,1.0,80,0.00,,SCT017,0.00,VWS V14.01,2013-07-30 15:12:00,
2013-07-30 11:17:00,76.5,69.9,30.12,WSW,238,0.0,1.0,80,0.00,,SCT017,0.00,VWS V14.01,2013-07-30 15:17:00,
2013-07-30 11:22:00,76.8,69.8,30.12,SW,236,2.0,2.0,79,0.00,,SCT017,0.00,VWS V14.01,2013-07-30 15:22:00,
2013-07-30 11:27:00,77.0,70.4,30.12,SSE,157,0.0,4.0,80,0.00,,SCT017,0.00,VWS V14.01,2013-07-30 15:27:00,
2013-07-30 11:32:00,77.2,70.2,30.12,SSE,147,0.0,1.0,79,0.00,,SCT017,0.00,VWS V14.01,2013-07-30 15:32:00,
2013-07-30 11:37:00,77.4,70.4,30.12,SSE,148,0.0,1.0,79,0.00,,SCT017,0.00,VWS V14.01,2013-07-30 15:37:00,
2013-07-30 11:42:00,77.4,70.0,30.12,SE,128,0.0,1.0,78,0.00,,SCT017,0.00,VWS V14.01,2013-07-30 15:42:00,
2013-07-30 11:47:00,77.6,70.6,30.12,South,188,0.0,1.0,79,0.00,,FEW017,0.00,VWS V14.01,2013-07-30 15:47:00,
2013-07-30 11:52:00,77.7,71.0,30.12,South,191,0.0,0.0,80,0.00,,FEW017,0.00,VWS V14.01,2013-07-30 15:52:00,
2013-07-30 11:57:00,77.9,70.9,30.12,ESE,119,0.0,0.0,79,0.00,,FEW017,0.00,VWS V14.01,2013-07-30 15:57:00,
2013-07-30 12:02:00,78.1,71.1,30.12,ESE,111,0.0,0.0,79,0.00,,FEW017,0.00,VWS V14.01,2013-07-30 16:02:00,
2013-07-30 12:07:00,78.5,71.4,30.12,ESE,115,0.0,0.0,79,0.00,,FEW017,0.00,VWS V14.01,2013-07-30 16:07:00,
2013-07-30 12:12:00,78.8,70.6,30.12,SSE,154,0.0,0.0,76,0.00,,FEW017,0.00,VWS V14.01,2013-07-30 16:12:00,
2013-07-30 12:17:00,79.0,71.2,30.11,SSE,157,0.0,1.0,77,0.00,,FEW017,0.00,VWS V14.01,2013-07-30 16:17:00,
2013-07-30 12:22:00,79.2,71.4,30.11,SE,138,0.0,0.0,77,0.00,,FEW017,0.00,VWS V14.01,2013-07-30 16:22:00,
2013-07-30 12:27:00,79.6,71.4,30.11,SW,236,2.0,2.0,76,0.00,,FEW017,0.00,VWS V14.01,2013-07-30 16:27:00,
2013-07-30 12:32:00,79.8,71.6,30.11,South,177,0.0,0.0,76,0.00,,FEW017,0.00,VWS V14.01,2013-07-30 16:32:00,
2013-07-30 12:37:00,80.1,71.9,30.11,South,176,0.0,0.0,76,0.00,,FEW017,0.00,VWS V14.01,2013-07-30 16:37:00,
2013-07-30 12:42:00,80.1,71.1,30.11,SSE,152,0.0,0.0,74,0.00,,FEW017,0.00,VWS V14.01,2013-07-30 16:42:00,
2013-07-30 12:47:00,80.1,70.7,30.10,SSE,159,0.0,0.0,73,0.00,,CLR,0.00,VWS V14.01,2013-07-30 16:47:00,
2013-07-30 12:52:00,80.5,71.5,30.10,SSE,161,0.0,1.0,74,0.00,,CLR,0.00,VWS V14.01,2013-07-30 16:52:00,
2013-07-30 12:57:00,80.5,71.1,30.10,SSE,163,0.0,0.0,73,0.00,,CLR,0.00,VWS V14.01,2013-07-30 16:57:00,
2013-07-30 13:02:00,80.7,71.7,30.10,SE,130,0.0,0.0,74,0.00,,BKN022,0.00,VWS V14.01,2013-07-30 17:02:00,
2013-07-30 13:07:00,80.7,70.8,30.10,ESE,115,0.0,1.0,72,0.00,,BKN022,0.00,VWS V14.01,2013-07-30 17:07:00,
2013-07-30 13:12:00,80.5,71.8,30.10,ESE,115,0.0,1.0,75,0.00,,BKN022,0.00,VWS V14.01,2013-07-30 17:12:00,
2013-07-30 13:17:00,80.9,72.6,30.10,ESE,115,0.0,0.0,76,0.00,,BKN022,0.00,VWS V14.01,2013-07-30 17:17:00,
2013-07-30 13:22:00,81.4,72.3,30.10,ESE,115,0.0,0.0,74,0.00,,BKN022,0.00,VWS V14.01,2013-07-30 17:22:00,
2013-07-30 13:27:00,81.8,72.3,30.10,ESE,115,0.0,1.0,73,0.00,,BKN022,0.00,VWS V14.01,2013-07-30 17:27:00,
2013-07-30 13:32:00,82.2,72.3,30.10,ESE,115,0.0,0.0,72,0.00,,BKN022,0.00,VWS V14.01,2013-07-30 17:32:00,
2013-07-30 13:33:00,82.2,72.3,30.10,ESE,115,0.0,0.0,72,0.00,,BKN022,0.00,VWS V14.01,2013-07-30 17:33:00,
2013-07-30 13:38:00,82.6,71.8,30.10,ESE,115,0.0,0.0,70,0.00,,BKN022,0.00,VWS V14.01,2013-07-30 17:38:00,
2013-07-30 13:42:00,83.0,72.6,30.10,East,101,0.0,1.0,71,0.00,,BKN022,0.00,VWS V14.01,2013-07-30 17:42:00,
2013-07-30 13:47:00,83.2,71.1,30.09,East,83,0.0,0.0,67,0.00,,BKN024,0.00,VWS V14.01,2013-07-30 17:47:00,
2013-07-30 13:52:00,83.2,72.4,30.09,East,100,0.0,0.0,70,0.00,,BKN024,0.00,VWS V14.01,2013-07-30 17:52:00,
2013-07-30 13:57:00,83.0,71.8,30.09,ESE,103,0.0,0.0,69,0.00,,BKN024,0.00,VWS V14.01,2013-07-30 17:57:00,
2013-07-30 14:02:00,83.0,70.5,30.08,ESE,103,0.0,0.0,66,0.00,,BKN024,0.00,VWS V14.01,2013-07-30 18:02:00,
2013-07-30 14:07:00,83.0,70.5,30.08,ESE,103,0.0,1.0,66,0.00,,BKN024,0.00,VWS V14.01,2013-07-30 18:07:00,
2013-07-30 14:12:00,83.4,72.2,30.08,ESE,103,0.0,0.0,69,0.00,,BKN024,0.00,VWS V14.01,2013-07-30 18:12:00,
2013-07-30 14:17:00,83.4,70.9,30.08,East,84,0.0,0.0,66,0.00,,BKN024,0.00,VWS V14.01,2013-07-30 18:17:00,
2013-07-30 14:22:00,83.4,70.9,30.08,East,98,0.0,0.0,66,0.00,,BKN024,0.00,VWS V14.01,2013-07-30 18:22:00,
2013-07-30 14:27:00,83.2,70.2,30.08,East,98,0.0,0.0,65,0.00,,BKN024,0.00,VWS V14.01,2013-07-30 18:27:00,
2013-07-30 14:32:00,83.6,71.5,30.07,East,98,0.0,0.0,67,0.00,,BKN024,0.00,VWS V14.01,2013-07-30 18:32:00,
2013-07-30 14:37:00,84.0,71.0,30.07,East,98,0.0,0.0,65,0.00,,BKN024,0.00,VWS V14.01,2013-07-30 18:37:00,
2013-07-30 14:42:00,84.5,71.4,30.07,East,98,0.0,0.0,65,0.00,,BKN024,0.00,VWS V14.01,2013-07-30 18:42:00,
2013-07-30 14:47:00,84.3,70.3,30.07,East,98,0.0,0.0,63,0.00,,BKN036,0.00,VWS V14.01,2013-07-30 18:47:00,
2013-07-30 14:52:00,84.0,70.5,30.07,East,98,0.0,0.0,64,0.00,,BKN036,0.00,VWS V14.01,2013-07-30 18:52:00,
2013-07-30 14:57:00,83.2,70.7,30.07,East,98,0.0,0.0,66,0.00,,BKN036,0.00,VWS V14.01,2013-07-30 18:57:00,
2013-07-30 15:02:00,82.8,71.2,30.07,ESE,121,0.0,1.0,68,0.00,,BKN036,0.00,VWS V14.01,2013-07-30 19:02:00,
2013-07-30 15:07:00,83.2,71.6,30.07,ESE,121,0.0,0.0,68,0.00,,BKN036,0.00,VWS V14.01,2013-07-30 19:07:00,
2013-07-30 15:12:00,83.4,69.5,30.07,SE,124,0.0,0.0,63,0.00,,BKN036,0.00,VWS V14.01,2013-07-30 19:12:00,
2013-07-30 15:17:00,83.6,69.7,30.07,SE,126,0.0,0.0,63,0.00,,BKN036,0.00,VWS V14.01,2013-07-30 19:17:00,
2013-07-30 15:22:00,83.8,73.0,30.07,West,277,0.0,2.0,70,0.00,,BKN036,0.00,VWS V14.01,2013-07-30 19:22:00,
2013-07-30 15:27:00,83.6,73.2,30.07,West,277,0.0,0.0,71,0.00,,BKN036,0.00,VWS V14.01,2013-07-30 19:27:00,
2013-07-30 15:32:00,83.0,73.5,30.07,WSW,250,0.0,0.0,73,0.00,,BKN036,0.00,VWS V14.01,2013-07-30 19:32:00,
2013-07-30 15:37:00,82.4,72.1,30.07,WSW,250,0.0,0.0,71,0.00,,BKN036,0.00,VWS V14.01,2013-07-30 19:37:00,
2013-07-30 15:43:00,82.2,73.5,30.07,WSW,250,0.0,0.0,75,0.00,,BKN036,0.00,VWS V14.01,2013-07-30 19:43:00,
2013-07-30 15:48:00,82.2,73.5,30.06,SSW,203,0.0,0.0,75,0.00,,BKN036,0.00,VWS V14.01,2013-07-30 19:48:00,
2013-07-30 15:53:00,82.8,72.4,30.06,South,178,0.0,0.0,71,0.00,,BKN036,0.00,VWS V14.01,2013-07-30 19:53:00,
2013-07-30 15:57:00,83.8,72.6,30.06,South,169,0.0,0.0,69,0.00,,BKN036,0.00,VWS V14.01,2013-07-30 19:57:00,
2013-07-30 16:02:00,84.1,71.5,30.06,South,169,0.0,0.0,66,0.00,,BKN036,0.00,VWS V14.01,2013-07-30 20:02:00,
2013-07-30 16:07:00,84.5,71.4,30.06,South,191,0.0,0.0,65,0.00,,BKN036,0.00,VWS V14.01,2013-07-30 20:07:00,
2013-07-30 16:12:00,84.1,70.6,30.06,South,172,0.0,0.0,64,0.00,,BKN036,0.00,VWS V14.01,2013-07-30 20:12:00,
2013-07-30 16:17:00,83.6,71.5,30.06,South,172,0.0,0.0,67,0.00,,BKN036,0.00,VWS V14.01,2013-07-30 20:17:00,
2013-07-30 16:22:00,83.4,71.3,30.06,South,172,1.0,1.0,67,0.00,,BKN036,0.00,VWS V14.01,2013-07-30 20:22:00,
2013-07-30 16:27:00,83.6,72.8,30.06,South,182,0.0,0.0,70,0.00,,BKN036,0.00,VWS V14.01,2013-07-30 20:27:00,
2013-07-30 16:32:00,83.6,72.8,30.05,South,182,0.0,0.0,70,0.00,,BKN036,0.00,VWS V14.01,2013-07-30 20:32:00,
2013-07-30 16:37:00,83.2,72.4,30.05,South,182,0.0,0.0,70,0.00,,BKN036,0.00,VWS V14.01,2013-07-30 20:37:00,
2013-07-30 16:42:00,82.8,72.0,30.05,South,182,0.0,0.0,70,0.00,,BKN036,0.00,VWS V14.01,2013-07-30 20:42:00,
2013-07-30 16:47:00,82.6,72.2,30.05,South,182,0.0,0.0,71,0.00,,SCT041,0.00,VWS V14.01,2013-07-30 20:47:00,
2013-07-30 16:52:00,82.2,72.3,30.05,South,182,0.0,0.0,72,0.00,,SCT041,0.00,VWS V14.01,2013-07-30 20:52:00,
2013-07-30 16:57:00,81.8,72.7,30.05,South,182,0.0,0.0,74,0.00,,SCT041,0.00,VWS V14.01,2013-07-30 20:57:00,
2013-07-30 17:02:00,81.6,72.5,30.05,South,182,0.0,0.0,74,0.00,,SCT041,0.00,VWS V14.01,2013-07-30 21:02:00,
2013-07-30 17:07:00,81.8,71.9,30.05,South,182,0.0,0.0,72,0.00,,SCT041,0.00,VWS V14.01,2013-07-30 21:07:00,
2013-07-30 17:12:00,82.2,72.7,30.05,South,182,0.0,0.0,73,0.00,,SCT041,0.00,VWS V14.01,2013-07-30 21:12:00,
2013-07-30 17:17:00,82.2,72.7,30.05,South,182,0.0,0.0,73,0.00,,SCT041,0.00,VWS V14.01,2013-07-30 21:17:00,
2013-07-30 17:22:00,82.4,72.9,30.05,South,182,0.0,0.0,73,0.00,,SCT041,0.00,VWS V14.01,2013-07-30 21:22:00,
2013-07-30 17:27:00,82.2,73.1,30.05,South,182,0.0,0.0,74,0.00,,SCT041,0.00,VWS V14.01,2013-07-30 21:27:00,
2013-07-30 17:32:00,82.2,73.9,30.05,South,182,0.0,0.0,76,0.00,,SCT041,0.00,VWS V14.01,2013-07-30 21:32:00,
2013-07-30 17:37:00,81.8,73.9,30.05,South,182,0.0,0.0,77,0.00,,SCT041,0.00,VWS V14.01,2013-07-30 21:37:00,
2013-07-30 17:42:00,81.8,73.5,30.05,South,182,0.0,0.0,76,0.00,,SCT041,0.00,VWS V14.01,2013-07-30 21:42:00,
2013-07-30 17:47:00,82.2,73.5,30.05,South,182,0.0,0.0,75,0.00,,SCT036,0.00,VWS V14.01,2013-07-30 21:47:00,
2013-07-30 17:52:00,82.6,73.1,30.05,South,182,0.0,0.0,73,0.00,,SCT036,0.00,VWS V14.01,2013-07-30 21:52:00,
2013-07-30 17:57:00,82.6,72.2,30.05,South,182,0.0,0.0,71,0.00,,SCT036,0.00,VWS V14.01,2013-07-30 21:57:00,
2013-07-30 18:02:00,82.8,73.3,30.05,South,182,0.0,0.0,73,0.00,,SCT036,0.00,VWS V14.01,2013-07-30 22:02:00,
2013-07-30 18:07:00,82.8,72.0,30.05,South,182,0.0,0.0,70,0.00,,SCT036,0.00,VWS V14.01,2013-07-30 22:07:00,
2013-07-30 18:12:00,82.4,71.6,30.05,South,182,0.0,0.0,70,0.00,,SCT036,0.00,VWS V14.01,2013-07-30 22:12:00,
2013-07-30 18:17:00,82.2,71.9,30.05,South,182,0.0,0.0,71,0.00,,SCT036,0.00,VWS V14.01,2013-07-30 22:17:00,
2013-07-30 18:22:00,81.8,71.5,30.05,South,182,0.0,0.0,71,0.00,,SCT036,0.00,VWS V14.01,2013-07-30 22:22:00,
2013-07-30 18:27:00,81.6,71.7,30.05,South,182,0.0,0.0,72,0.00,,SCT036,0.00,VWS V14.01,2013-07-30 22:27:00,
2013-07-30 18:32:00,81.6,72.5,30.04,South,182,0.0,0.0,74,0.00,,SCT036,0.00,VWS V14.01,2013-07-30 22:32:00,
2013-07-30 18:37:00,81.6,71.7,30.04,South,182,0.0,0.0,72,0.00,,SCT036,0.00,VWS V14.01,2013-07-30 22:37:00,
2013-07-30 18:42:00,81.6,72.1,30.04,South,182,0.0,0.0,73,0.00,,SCT036,0.00,VWS V14.01,2013-07-30 22:42:00,
2013-07-30 18:47:00,81.6,72.9,30.04,South,182,0.0,1.0,75,0.00,,FEW042,0.00,VWS V14.01,2013-07-30 22:47:00,
2013-07-30 18:52:00,81.4,71.9,30.04,South,182,0.0,0.0,73,0.00,,FEW042,0.00,VWS V14.01,2013-07-30 22:52:00,
2013-07-30 18:57:00,81.2,71.7,30.04,South,182,0.0,0.0,73,0.00,,FEW042,0.00,VWS V14.01,2013-07-30 22:57:00,
2013-07-30 19:02:00,81.1,73.6,30.04,South,182,0.0,0.0,78,0.00,,FEW042,0.00,VWS V14.01,2013-07-30 23:02:00,
2013-07-30 19:07:00,80.7,73.6,30.04,South,182,0.0,0.0,79,0.00,,FEW042,0.00,VWS V14.01,2013-07-30 23:07:00,
2013-07-30 19:12:00,80.1,73.8,30.04,South,182,0.0,0.0,81,0.00,,FEW042,0.00,VWS V14.01,2013-07-30 23:12:00,
2013-07-30 19:17:00,79.6,73.6,30.04,South,182,0.0,0.0,82,0.00,,FEW042,0.00,VWS V14.01,2013-07-30 23:17:00,
2013-07-30 19:22:00,79.0,73.0,30.04,South,182,0.0,0.0,82,0.00,,FEW042,0.00,VWS V14.01,2013-07-30 23:22:00,
2013-07-30 19:27:00,78.6,73.0,30.04,South,182,0.0,0.0,83,0.00,,FEW042,0.00,VWS V14.01,2013-07-30 23:27:00,
2013-07-30 19:32:00,78.3,73.1,30.04,South,182,0.0,0.0,84,0.00,,FEW042,0.00,VWS V14.01,2013-07-30 23:32:00,
2013-07-30 19:37:00,77.9,72.7,30.04,South,182,0.0,0.0,84,0.00,,FEW042,0.00,VWS V14.01,2013-07-30 23:37:00,
2013-07-30 19:42:00,77.6,72.7,30.04,South,182,0.0,0.0,85,0.00,,FEW042,0.00,VWS V14.01,2013-07-30 23:42:00,
2013-07-30 19:47:00,77.4,72.5,30.04,South,182,0.0,0.0,85,0.00,,CLR,0.00,VWS V14.01,2013-07-30 23:47:00,
2013-07-30 19:52:00,77.2,72.3,30.04,South,182,0.0,0.0,85,0.00,,CLR,0.00,VWS V14.01,2013-07-30 23:52:00,
2013-07-30 19:57:00,77.0,72.5,30.04,South,182,0.0,0.0,86,0.00,,CLR,0.00,VWS V14.01,2013-07-30 23:57:00,
2013-07-30 20:02:00,76.8,72.6,30.05,South,182,0.0,0.0,87,0.00,,CLR,0.00,VWS V14.01,2013-07-31 00:02:00,
2013-07-30 20:07:00,76.7,72.9,30.05,South,182,0.0,0.0,88,0.00,,CLR,0.00,VWS V14.01,2013-07-31 00:07:00,
2013-07-30 20:12:00,76.5,72.3,30.05,South,182,0.0,0.0,87,0.00,,CLR,0.00,VWS V14.01,2013-07-31 00:12:00,
2013-07-30 20:17:00,76.3,72.2,30.05,South,182,0.0,0.0,87,0.00,,CLR,0.00,VWS V14.01,2013-07-31 00:17:00,
2013-07-30 20:22:00,76.1,71.9,30.05,South,182,0.0,0.0,87,0.00,,CLR,0.00,VWS V14.01,2013-07-31 00:22:00,
2013-07-30 20:27:00,76.1,71.9,30.05,South,182,0.0,0.0,87,0.00,,CLR,0.00,VWS V14.01,2013-07-31 00:27:00,
2013-07-30 20:28:00,76.1,71.9,30.05,South,182,0.0,0.0,87,0.00,,CLR,0.00,VWS V14.01,2013-07-31 00:28:00,
2013-07-30 20:32:00,76.0,71.9,30.06,South,182,0.0,0.0,87,0.00,,CLR,0.00,VWS V14.01,2013-07-31 00:32:00,
2013-07-30 20:37:00,75.8,71.7,30.06,South,182,0.0,0.0,87,0.00,,CLR,0.00,VWS V14.01,2013-07-31 00:37:00,
2013-07-30 20:42:00,75.8,71.7,30.06,South,182,0.0,0.0,87,0.00,,CLR,0.00,VWS V14.01,2013-07-31 00:42:00,
2013-07-30 20:47:00,75.6,71.8,30.06,South,182,0.0,0.0,88,0.00,,CLR,0.00,VWS V14.01,2013-07-31 00:47:00,
2013-07-30 20:52:00,75.4,71.6,30.06,South,182,0.0,0.0,88,0.00,,CLR,0.00,VWS V14.01,2013-07-31 00:52:00,
2013-07-30 20:57:00,75.3,71.8,30.06,South,182,0.0,0.0,89,0.00,,CLR,0.00,VWS V14.01,2013-07-31 00:57:00,
2013-07-30 21:02:00,75.1,71.6,30.06,South,182,0.0,0.0,89,0.00,,CLR,0.00,VWS V14.01,2013-07-31 01:02:00,
2013-07-30 21:07:00,74.9,71.8,30.06,South,182,0.0,0.0,90,0.00,,CLR,0.00,VWS V14.01,2013-07-31 01:07:00,
2013-07-30 21:12:00,74.7,71.6,30.06,South,182,0.0,0.0,90,0.00,,CLR,0.00,VWS V14.01,2013-07-31 01:12:00,
2013-07-30 21:17:00,74.6,71.5,30.06,South,182,0.0,0.0,90,0.00,,CLR,0.00,VWS V14.01,2013-07-31 01:17:00,
2013-07-30 21:22:00,74.6,71.2,30.06,South,182,0.0,0.0,89,0.00,,CLR,0.00,VWS V14.01,2013-07-31 01:22:00,
2013-07-30 21:27:00,74.4,70.9,30.06,South,182,0.0,0.0,89,0.00,,CLR,0.00,VWS V14.01,2013-07-31 01:27:00,
2013-07-30 21:32:00,74.2,71.1,30.07,South,182,0.0,0.0,90,0.00,,CLR,0.00,VWS V14.01,2013-07-31 01:32:00,
2013-07-30 21:37:00,74.2,71.1,30.07,South,182,0.0,0.0,90,0.00,,CLR,0.00,VWS V14.01,2013-07-31 01:37:00,
2013-07-30 21:43:00,74.2,71.1,30.07,South,182,0.0,0.0,90,0.00,,CLR,0.00,VWS V14.01,2013-07-31 01:43:00,
2013-07-30 21:48:00,74.2,71.1,30.07,South,182,0.0,0.0,90,0.00,,CLR,0.00,VWS V14.01,2013-07-31 01:48:00,
2013-07-30 21:53:00,74.2,71.1,30.07,South,182,0.0,0.0,90,0.00,,CLR,0.00,VWS V14.01,2013-07-31 01:53:00,
2013-07-30 21:58:00,74.0,70.9,30.07,South,182,0.0,0.0,90,0.00,,CLR,0.00,VWS V14.01,2013-07-31 01:58:00,
2013-07-30 22:03:00,74.0,70.9,30.07,South,182,0.0,0.0,90,0.00,,CLR,0.00,VWS V14.01,2013-07-31 02:03:00,
2013-07-30 22:08:00,73.9,70.8,30.07,South,182,0.0,0.0,90,0.00,,CLR,0.00,VWS V14.01,2013-07-31 02:08:00,
2013-07-30 22:13:00,73.7,70.9,30.07,South,182,0.0,0.0,91,0.00,,CLR,0.00,VWS V14.01,2013-07-31 02:13:00,
2013-07-30 22:18:00,73.5,70.4,30.07,South,182,0.0,0.0,90,0.00,,CLR,0.00,VWS V14.01,2013-07-31 02:18:00,
2013-07-30 22:23:00,73.3,70.5,30.07,South,182,0.0,0.0,91,0.00,,CLR,0.00,VWS V14.01,2013-07-31 02:23:00,
2013-07-30 22:28:00,73.3,70.5,30.07,South,182,0.0,0.0,91,0.00,,CLR,0.00,VWS V14.01,2013-07-31 02:28:00,
2013-07-30 22:33:00,73.2,70.4,30.07,South,182,0.0,0.0,91,0.00,,CLR,0.00,VWS V14.01,2013-07-31 02:33:00,
2013-07-30 22:38:00,73.2,70.4,30.07,South,182,0.0,0.0,91,0.00,,CLR,0.00,VWS V14.01,2013-07-31 02:38:00,
2013-07-30 22:43:00,73.2,70.4,30.07,South,182,0.0,0.0,91,0.00,,CLR,0.00,VWS V14.01,2013-07-31 02:43:00,
2013-07-30 22:48:00,73.2,70.4,30.08,South,182,0.0,0.0,91,0.00,,CLR,0.00,VWS V14.01,2013-07-31 02:48:00,
2013-07-30 22:53:00,73.2,70.4,30.08,South,182,0.0,0.0,91,0.00,,CLR,0.00,VWS V14.01,2013-07-31 02:53:00,
2013-07-30 22:58:00,73.0,70.2,30.08,South,182,0.0,0.0,91,0.00,,CLR,0.00,VWS V14.01,2013-07-31 02:58:00,
2013-07-30 23:03:00,73.0,70.2,30.08,South,182,0.0,0.0,91,0.00,,CLR,0.00,VWS V14.01,2013-07-31 03:03:00,
2013-07-30 23:08:00,72.8,70.3,30.08,South,182,0.0,0.0,92,0.00,,CLR,0.00,VWS V14.01,2013-07-31 03:08:00,
2013-07-30 23:13:00,72.7,70.2,30.08,South,182,0.0,0.0,92,0.00,,CLR,0.00,VWS V14.01,2013-07-31 03:13:00,
2013-07-30 23:18:00,72.7,70.2,30.07,South,182,0.0,0.0,92,0.00,,CLR,0.00,VWS V14.01,2013-07-31 03:18:00,
2013-07-30 23:23:00,72.7,70.6,30.07,South,182,0.0,0.0,93,0.00,,CLR,0.00,VWS V14.01,2013-07-31 03:23:00,
2013-07-30 23:28:00,72.7,70.6,30.07,South,182,0.0,0.0,93,0.00,,CLR,0.00,VWS V14.01,2013-07-31 03:28:00,
2013-07-30 23:33:00,72.7,70.6,30.07,South,182,0.0,0.0,93,0.00,,CLR,0.00,VWS V14.01,2013-07-31 03:33:00,
2013-07-30 23:38:00,72.7,70.6,30.07,South,182,0.0,0.0,93,0.00,,CLR,0.00,VWS V14.01,2013-07-31 03:38:00,
2013-07-30 23:43:00,72.7,70.9,30.07,South,182,0.0,0.0,94,0.00,,CLR,0.00,VWS V14.01,2013-07-31 03:43:00,
2013-07-30 23:48:00,72.7,70.9,30.07,South,182,0.0,0.0,94,0.00,,CLR,0.00,VWS V14.01,2013-07-31 03:48:00,
2013-07-30 23:53:00,72.7,70.9,30.07,South,182,0.0,0.0,94,0.00,,CLR,0.00,VWS V14.01,2013-07-31 03:53:00,
2013-07-30 23:58:00,72.7,70.9,30.07,South,182,0.0,0.0,94,0.00,,CLR,0.00,VWS V14.01,2013-07-31 03:58:00,